Wind_Speed
27 26 25 25 24 23 23 22 21 20 20 20 19 19 19 20 19 19 19 19 19 19 18 18 18 17 16 15 14 14 13 13 14 14 14 14 13 14 15 14 14 13
28 27 25 25 25 25 24 23 22 21 21 21 20 19 19 19 20 20 20 20 20 20 19 19 19 19 18 16 15 15 15 15 14 14 15 15 14 15 15 16 15 15
30 28 27 27 26 26 25 24 23 22 21 21 21 21 19 19 20 21 22 22 21 21 20 20 20 20 19 18 16 16 15 16 16 15 15 16 15 15 16 16 16 16
31 30 29 28 27 26 25 24 24 24 23 22 22 22 21 20 19 21 22 22 22 21 21 21 21 20 20 19 18 17 16 17 17 16 16 17 16 16 16 16 16 16
33 32 30 29 28 26 25 26 26 25 24 23 22 21 22 21 20 20 21 22 22 22 22 22 22 21 21 21 20 18 17 17 18 18 18 17 17 17 17 17 17 17
33 33 31 30 29 28 27 27 28 26 25 24 23 22 22 22 22 22 22 22 23 22 22 22 23 22 22 22 21 20 19 18 18 19 19 19 19 18 18 18 18 18
33 33 33 31 30 29 29 28 27 27 26 24 23 23 23 23 23 24 23 23 23 23 23 23 23 23 23 23 22 21 21 19 19 20 21 20 20 20 19 19 19 19
34 34 32 32 31 30 30 29 27 27 27 25 24 24 24 24 24 24 24 24 23 23 23 23 23 24 23 23 23 22 22 21 21 22 22 21 21 21 22 21 20 20
34 33 32 32 32 31 31 30 29 27 27 26 26 25 24 25 25 25 25 25 24 23 23 23 24 24 24 24 24 23 23 23 22 24 24 23 23 23 23 23 21 21
34 34 33 33 33 32 31 31 30 28 27 28 27 26 25 25 25 25 25 25 25 24 24 24 24 25 25 24 24 24 24 24 24 25 25 25 25 24 24 24 23 23
35 35 34 35 34 33 33 33 31 30 28 28 29 28 27 26 25 26 26 26 26 25 25 25 25 26 26 25 25 25 25 25 25 25 26 26 26 25 25 25 25 24
36 36 35 35 35 34 33 34 33 32 30 29 29 29 29 27 26 26 27 27 26 26 26 26 26 26 27 26 26 25 25 25 25 26 26 26 26 26 26 26 26 26
36 36 35 35 35 35 34 33 33 33 32 30 29 29 29 29 28 27 27 28 28 27 27 27 27 27 27 27 27 26 26 26 25 26 26 26 26 26 26 27 27 27
35 35 35 35 35 35 35 33 33 33 33 31 29 29 29 30 30 29 27 27 28 28 28 28 28 28 28 28 28 27 26 26 26 26 26 26 26 27 27 27 27 28
32 32 33 34 34 33 34 35 34 33 32 31 30 29 29 29 29 29 28 28 28 29 29 29 29 29 30 30 29 28 27 27 27 27 27 27 27 27 27 27 27 28
30 30 30 31 32 32 32 34 33 32 31 31 31 30 28 27 28 28 28 28 28 29 29 29 30 30 32 33 33 31 29 27 27 27 28 28 28 27 28 28 28 28
29 29 29 29 30 30 30 31 32 31 31 31 31 30 29 28 27 28 29 29 28 29 29 30 30 31 33 36 37 36 32 29 28 28 28 29 29 29 28 28 28 28
28 28 27 28 28 28 28 28 29 29 29 29 29 30 29 28 27 28 29 29 28 28 29 29 30 32 35 38 39 40 38 32 28 28 29 29 30 30 28 27 27 28
29 28 28 28 28 27 26 25 27 28 28 28 28 28 28 28 28 28 28 28 28 28 29 29 30 32 37 40 41 42 43 39 32 28 29 29 30 30 29 28 27 27
29 29 29 28 27 27 26 26 26 27 28 27 26 27 28 28 28 27 27 28 29 29 29 30 29 31 35 40 41 42 44 44 38 30 29 30 30 30 29 29 29 28
29 29 28 27 27 27 28 28 27 27 28 27 26 26 27 27 27 28 28 29 29 30 29 29 29 31 33 37 41 42 43 45 42 34 29 29 29 29 29 29 30 29
28 27 25 25 26 26 28 28 28 27 27 26 26 25 25 25 26 27 28 28 28 29 29 30 30 31 33 35 38 40 41 44 45 38 31 29 28 28 29 29 29 30
27 26 26 26 26 27 28 28 28 26 25 26 26 25 24 25 25 25 26 27 28 29 30 31 30 31 34 35 36 39 40 44 46 39 32 31 30 29 30 31 30 30
27 27 27 27 27 28 28 27 26 25 25 25 26 26 26 25 24 24 25 26 28 29 30 30 30 32 35 36 38 39 41 45 46 39 32 32 32 30 32 32 32 33
26 27 27 27 27 27 26 25 24 24 24 24 25 25 25 25 24 24 24 25 26 28 30 31 30 31 33 36 39 40 42 45 44 37 32 32 31 30 31 32 33 35
25 26 26 26 26 25 24 24 23 23 23 23 23 23 22 23 23 24 24 24 25 25 28 30 30 30 32 35 39 41 43 46 42 34 31 32 31 30 30 31 34 37
Wind_Direction
203 204 204 205 206 208 209 209 209 209 208 209 210 211 212 212 211 209 207 207 206 207 206 205 204 203 204 204 201 200 201 203 204 201 201 204 208 217 222 218 217 223
202 203 203 204 206 208 209 210 211 212 212 212 213 214 214 213 210 208 207 205 204 205 206 205 204 202 202 203 202 200 199 202 205 203 202 205 208 215 222 221 219 220
200 202 203 204 206 207 209 210 211 213 214 213 214 214 214 213 210 208 206 205 204 204 204 204 205 203 202 202 201 202 201 201 204 204 203 205 208 215 222 222 222 219
199 201 204 205 207 207 207 209 211 212 213 213 213 213 214 214 211 208 206 204 204 203 202 203 205 205 204 203 201 201 202 203 204 203 202 205 207 213 221 223 223 221
199 200 203 205 206 206 205 208 211 211 212 213 213 212 212 212 211 209 207 205 203 203 203 202 202 203 204 203 201 201 203 205 206 203 202 205 206 210 218 222 223 223
198 200 202 203 204 204 204 208 210 211 212 213 212 212 211 210 210 209 209 206 204 204 204 203 202 202 203 202 202 202 203 205 206 204 203 204 207 210 216 220 222 222
198 199 201 201 202 202 204 207 209 210 212 212 212 211 210 210 209 209 209 207 206 205 205 204 203 202 202 201 202 203 203 206 205 202 203 205 206 210 215 218 218 219
197 199 199 200 201 202 204 206 207 209 210 210 211 211 210 210 209 209 208 207 207 206 204 204 202 202 202 201 203 203 203 206 206 203 203 205 207 210 214 217 216 216
196 198 198 200 201 203 205 207 207 208 208 208 210 210 209 210 209 208 207 207 208 207 204 204 202 202 203 203 204 204 204 205 206 205 205 206 208 211 213 215 215 214
196 197 198 200 202 204 206 208 209 209 208 207 209 212 211 210 209 208 207 205 206 206 204 203 203 202 203 205 205 206 206 206 207 206 206 207 208 209 211 212 213 213
196 197 199 201 203 206 207 210 211 211 210 209 209 212 213 211 208 207 207 204 204 205 204 203 204 204 204 205 207 207 207 208 208 208 208 207 207 208 209 211 212 213
195 197 200 202 204 207 209 210 212 212 211 210 210 211 212 212 209 207 206 205 204 204 204 204 204 205 205 206 207 208 208 209 210 210 209 209 208 209 210 211 211 212
196 197 199 201 203 206 208 209 211 212 213 212 211 210 211 211 211 208 206 204 204 204 204 204 204 205 206 206 207 208 208 209 211 212 211 211 210 211 213 212 211 211
196 197 198 200 203 204 206 208 210 211 213 213 211 210 211 211 211 209 207 205 204 204 204 204 204 205 206 206 207 208 208 208 211 213 213 213 212 213 214 214 213 213
195 197 198 200 201 202 204 206 209 210 212 212 212 211 211 212 211 211 208 205 204 204 204 205 205 206 206 206 206 207 208 209 212 214 215 215 214 215 215 216 216 216
193 196 197 198 199 200 201 203 206 208 209 210 212 212 212 211 211 212 211 208 205 204 204 205 207 208 210 210 209 208 207 209 212 214 215 216 216 216 217 218 219 220
192 195 196 197 198 198 199 200 203 205 207 209 211 212 212 212 212 212 213 212 208 206 206 206 209 212 213 213 214 213 210 208 211 213 214 216 217 217 218 220 220 221
192 193 195 197 198 198 198 198 200 203 205 206 208 209 210 211 212 212 213 214 212 209 209 210 212 214 216 216 216 217 214 210 211 213 214 215 218 218 219 220 220 221
191 191 194 196 196 197 198 198 199 202 203 204 206 207 208 209 211 211 212 213 214 213 213 214 215 216 217 218 219 219 217 215 212 214 215 215 217 219 219 219 218 219
191 191 192 193 193 193 195 198 200 203 204 206 206 206 208 209 210 211 212 213 215 217 218 219 219 219 218 219 221 221 220 218 215 215 217 218 218 218 218 218 217 216
191 192 192 191 191 191 194 198 201 203 204 206 207 208 209 209 210 212 213 214 216 218 221 223 224 223 221 221 222 223 222 220 218 217 220 222 221 219 218 217 217 216
191 192 192 192 191 192 195 199 202 202 202 204 207 210 211 211 212 214 216 217 218 219 223 226 227 227 225 223 222 224 223 221 219 219 223 225 225 223 221 219 217 215
191 192 192 193 193 194 198 201 202 202 201 203 206 210 213 213 214 216 217 218 220 221 223 226 228 228 228 226 223 221 221 220 218 219 222 226 227 226 225 224 222 218
192 193 193 194 195 197 200 201 201 202 202 202 205 210 214 216 216 217 218 220 222 223 223 225 228 229 228 227 224 221 219 218 217 217 220 224 226 227 227 228 228 225
191 193 194 195 197 199 201 201 201 202 203 203 206 211 215 217 218 219 221 221 223 225 225 226 229 230 229 227 225 222 219 217 215 214 218 222 223 224 225 226 229 230
191 192 194 197 199 199 200 201 201 202 203 204 207 211 214 217 219 222 225 225 226 227 228 228 229 232 232 231 227 225 221 217 213 213 218 221 222 224 226 225 227 230
Height
785 787 789 791 793 796 798 799 801 803 805 806 807 809 810 812 814 815 817 818 820 821 823 825 826 827 828 829 830 832 833 835 836 837 838 840 841 841 842 842 842 842
781 783 786 788 790 792 794 796 798 800 801 803 804 806 807 809 811 812 814 816 817 819 820 822 824 825 826 827 828 829 831 832 834 835 836 837 838 839 840 840 840 841
777 779 781 783 785 787 790 793 795 797 798 800 801 803 805 806 808 809 811 813 814 816 818 820 821 823 824 825 826 827 828 830 831 833 834 835 836 837 837 838 839 839
772 774 777 779 781 784 787 789 791 793 795 796 798 800 801 803 805 806 808 810 811 813 815 817 819 820 821 822 824 825 826 827 829 830 831 832 833 834 835 836 837 837
766 769 772 775 778 780 783 785 787 789 791 792 794 796 798 800 802 804 805 807 808 810 812 813 815 817 819 820 821 823 824 825 826 827 828 829 830 831 833 834 834 835
762 765 768 771 773 776 779 780 782 784 787 789 791 793 795 797 799 800 802 804 805 807 809 810 812 814 816 817 818 820 821 822 823 824 825 826 827 829 830 831 832 833
756 759 763 766 769 772 774 776 778 781 783 785 787 789 791 793 795 797 798 800 802 803 805 807 809 810 812 814 815 816 818 819 820 821 822 823 824 826 827 828 829 830
751 755 758 761 764 767 769 772 774 776 779 782 784 786 787 789 791 793 795 797 798 800 802 804 805 807 809 810 812 813 814 816 817 817 819 820 821 822 823 825 826 827
747 750 753 757 759 762 764 767 770 772 775 777 779 782 784 785 787 789 791 793 795 797 798 800 802 803 805 807 808 809 810 812 813 813 815 816 817 818 820 821 822 824
741 745 748 751 754 757 759 762 765 768 770 772 775 777 779 781 783 785 787 789 791 793 795 797 798 799 801 803 804 806 807 808 809 810 811 812 813 814 816 818 819 820
736 739 742 745 748 751 754 757 761 763 766 768 770 773 775 778 779 781 783 785 787 789 791 793 794 796 797 799 800 802 803 804 805 806 807 808 809 811 812 814 815 816
730 733 736 739 743 746 749 752 755 758 760 763 765 768 771 773 775 777 779 780 782 785 787 788 790 792 793 795 797 798 799 801 802 803 804 805 806 807 808 809 810 812
724 727 731 734 737 741 744 747 750 753 755 758 760 763 765 768 770 772 774 776 778 780 782 784 786 788 789 791 793 794 795 797 798 799 800 801 802 803 804 805 806 807
720 723 726 729 732 736 739 742 745 748 750 753 756 758 760 763 765 768 770 771 774 775 778 780 781 783 785 786 788 790 792 793 794 795 796 797 798 799 800 801 801 802
717 720 722 725 728 731 735 737 740 744 746 750 752 754 756 758 761 763 765 767 769 771 773 775 776 777 779 781 783 785 787 789 790 791 793 794 794 795 796 796 797 798
714 717 719 722 725 727 730 733 737 740 743 745 748 750 752 755 757 759 761 762 764 766 768 769 771 771 773 775 778 780 783 785 786 787 788 789 790 790 791 792 792 793
710 713 716 719 721 724 727 730 733 736 739 741 744 746 749 751 753 755 756 758 760 761 763 764 765 766 768 770 773 775 778 780 781 782 783 784 785 785 786 787 788 789
706 710 713 716 719 722 724 727 730 733 735 738 740 742 745 747 749 751 752 754 756 757 759 759 760 761 762 765 767 769 772 775 776 777 778 779 780 780 781 783 784 785
702 705 708 712 715 719 722 725 727 730 731 734 736 738 741 743 745 747 749 751 752 753 754 754 755 756 757 759 761 763 766 769 771 772 772 773 774 775 777 778 779 781
698 700 703 707 711 715 719 721 724 726 728 730 733 735 737 739 741 743 745 746 747 748 750 750 750 751 752 754 756 758 761 763 765 767 767 768 769 770 772 773 774 776
694 697 700 704 707 711 713 716 719 721 724 727 729 731 733 735 737 739 740 742 743 744 746 746 746 747 748 750 752 754 756 759 761 763 763 764 765 766 767 768 769 770
691 695 698 701 705 707 709 712 714 716 720 723 726 728 730 731 733 735 736 738 739 740 741 741 742 743 744 745 747 750 753 755 757 758 759 760 761 761 762 763 764 765
688 691 695 698 701 703 705 707 710 713 716 719 722 724 726 727 729 730 732 734 735 736 736 736 737 738 739 740 742 745 748 750 751 753 755 755 756 757 758 759 759 760
684 687 690 693 696 698 700 703 706 710 712 715 717 719 721 723 725 726 728 729 730 730 731 732 732 733 734 735 737 739 741 743 745 747 749 749 750 751 752 754 755 756
680 684 687 689 692 694 697 701 703 706 708 711 713 715 717 719 721 722 723 724 725 725 726 727 727 728 729 730 731 733 735 737 740 742 742 743 743 744 746 748 749 750
677 680 683 686 689 692 695 698 700 703 705 707 709 711 713 715 717 718 719 719 720 721 721 722 723 723 725 725 726 728 730 732 735 736 736 737 738 740 741 742 742 742